STARLINK-35508 (65912 NORAD) Tracking and Keplerian Element Data

This shows tracking and keplerian element data for the satellite.

Feedback or suggestion? Click here.




ElementValue
Catalog65912
NameSTARLINK-35508
Epoch Orbit1213
Epoch Day353.53556524
Epoch Year2025
RAAN178.1649
Inclination53.1579
Eccentricity0.0001486
Argument of Perigee111.0175
Mean Anonmoly249.0984
Mean Motion15.30203934
Decay Rate0.00019669
L11 65912U 25225C 25353.53556524 .00019669 00000+0 67436-3 0 9991
L22 65912 53.1579 178.1649 0001486 111.0175 249.0984 15.30203934 12139



Live tracking and technical data element details for STARLINK-35508 (NORAD 65912). STARLINK-35508 can be tracked NOW for your location showing map with azimuth and elevation plus other details from your city location.







IsCatalogInMostPopularTable: catalog: 65912, numindb: 8
Update: records affected: 1



GetName: 65912 STARLINK-35508

Hit Count: updated at: Mon, 20 Apr 2026 10:50:27 GMT